Location: La Bilong�re
(48.1297°N, 1.4584°W)
Time: 03:36:48
(UTC+00:00)

Okean 1-7 - Pass Details

Date: 03 March 2021
Orbit: 589 x 619 km, 82.5° (Epoch: 16 April)

Event Time Altitude Azimuth Distance (km) Brightness Sun altitude
Rises 19:34:11 0° 349° (N) 2,899 6.8 -17.6°
Reaches altitude 10° 19:36:26 10° 349° (N) 1,985 5.9 -17.9°
Maximum altitude 19:40:50 83° 263° (W) 622 3.0 -18.6°
Drops below altitude 10° 19:45:10 10° 175° (S) 1,951 5.4 -19.4°
Enters shadow 19:45:49 - 175° (S) 2,219 5.7 -19.5°
